Date String (YYYY-MM-DD hh:mm:ss) UTC,Instrument flags,Ambient pressure (hPa),Sample flow (lpm),Bypass flow (lpm),Sample temperature (°C),Ambient temperature (°C),ASC tube jacket temperature (°C),LED temperature (°C),Box temperature (°C),Sample RH (%),Span deviation,Mass concentration (μg/m³),Mass concentration (μg/m³),Mass concentration (μg/m³)
DateTimeUTC,F1_M11,P_M11,Q1_M11,Q2_M11,T1_M11,T2_M11,T3_M11,T4_M11,T5_M11,U1_M11,ZSPAN_M11,X0_M11,X2_M11,X1_M11
2022-09-08 17:00:00,,0825.0,5.01,0.00,29.6,27.1,00.0,38.3,31.3,26.2,0002.3,0048.80,0021.30,0018.22
2022-09-08 17:01:00,,0825.0,4.99,0.00,29.6,27.4,00.0,38.3,31.3,26.9,0002.4,0048.42,0021.26,0018.24
2022-09-08 17:02:00,,0825.0,4.99,0.00,29.6,27.7,00.0,38.3,31.4,26.7,0002.3,0047.91,0021.22,0018.23
2022-09-08 17:03:00,,0825.1,5.02,0.00,29.6,28.0,00.0,38.3,31.5,26.6,0002.1,0048.01,0021.15,0018.24
2022-09-08 17:04:00,,0825.1,5.00,0.00,29.6,28.2,00.0,38.3,31.5,26.6,0002.2,0046.09,0021.15,0018.26
2022-09-08 17:05:00,,0825.1,4.99,0.00,29.7,27.8,00.0,38.3,31.5,26.4,0002.5,0045.27,0021.10,0018.28
2022-09-08 17:06:00,,0825.1,5.00,0.00,29.6,26.7,00.0,38.3,31.4,26.5,0002.6,0043.14,0021.00,0018.31
2022-09-08 17:07:00,,0825.1,5.00,0.00,29.6,26.5,00.0,38.3,31.4,25.9,0002.7,0041.92,0020.98,0018.32
2022-09-08 17:08:00,,0825.1,5.01,0.00,29.5,26.8,00.0,38.2,31.3,25.6,0002.8,0041.06,0020.92,0018.32
2022-09-08 17:09:00,,0825.0,5.00,0.00,29.5,27.1,00.0,38.2,31.2,25.9,0002.9,0041.16,0020.87,0018.33
2022-09-08 17:10:00,,0825.0,4.99,0.00,29.5,27.4,00.0,38.2,31.3,25.5,0002.9,0039.72,0020.85,0018.32
2022-09-08 17:11:00,,0825.0,5.00,0.00,29.5,27.7,00.0,38.2,31.3,25.4,0003.2,0038.40,0020.85,0018.33
2022-09-08 17:12:00,,0825.1,5.01,0.00,29.5,28.0,00.0,38.2,31.4,25.1,0003.5,0039.15,0020.77,0018.32
2022-09-08 17:13:00,,0825.0,5.02,0.00,29.6,28.2,00.0,38.2,31.5,24.9,0003.6,0040.12,0020.83,0018.32
2022-09-08 17:14:00,,0825.0,4.98,0.00,29.6,28.2,00.0,38.2,31.5,25.1,0003.6,0039.30,0020.82,0018.33
2022-09-08 17:15:00,,0825.0,5.02,0.00,29.6,27.4,00.0,38.3,31.4,24.7,0003.4,0039.62,0020.86,0018.35
2022-09-08 17:16:00,,0825.0,5.00,0.00,29.6,26.6,00.0,38.2,31.3,24.6,0003.2,0039.90,0020.90,0018.39
2022-09-08 17:17:00,,0825.0,5.00,0.00,29.5,26.7,00.0,38.2,31.3,24.3,0003.1,0041.26,0020.94,0018.39
2022-09-08 17:18:00,,0825.0,4.99,0.00,29.5,27.0,00.0,38.2,31.2,24.1,0002.9,0041.57,0020.95,0018.40
2022-09-08 17:19:00,,0825.0,5.00,0.00,29.5,27.3,00.0,38.2,31.2,24.1,0002.7,0041.48,0021.00,0018.41
2022-09-08 17:20:00,,0825.0,4.99,0.00,29.5,27.6,00.0,38.2,31.3,24.0,0002.8,0040.84,0020.90,0018.38
2022-09-08 17:21:00,,0825.0,5.00,0.00,29.5,27.9,00.0,38.2,31.4,23.6,0002.7,0042.08,0020.91,0018.39
2022-09-08 17:22:00,,0824.9,5.00,0.00,29.5,28.1,00.0,38.2,31.4,23.3,0002.8,0043.45,0020.94,0018.39
2022-09-08 17:23:00,,0824.9,5.00,0.00,29.6,28.3,00.0,38.2,31.5,23.0,0002.5,0042.82,0021.02,0018.41
2022-09-08 17:24:00,,0824.9,4.98,0.00,29.6,27.4,00.0,38.2,31.5,22.6,0002.4,0042.41,0020.99,0018.43
2022-09-08 17:25:00,,0824.9,5.02,0.00,29.6,26.5,00.0,38.2,31.4,22.5,0002.3,0042.99,0020.93,0018.43
2022-09-08 17:26:00,,0824.9,4.99,0.00,29.5,26.7,00.0,38.2,31.4,21.9,0002.4,0043.13,0020.88,0018.44
2022-09-08 17:27:00,,0824.9,4.99,0.00,29.5,27.0,00.0,38.1,31.2,21.6,0002.6,0042.72,0020.83,0018.44
2022-09-08 17:28:00,,0824.9,5.01,0.00,29.5,27.3,00.0,38.1,31.2,21.6,0002.7,0042.40,0020.91,0018.46
2022-09-08 17:29:00,,0824.9,4.99,0.00,29.5,27.6,00.0,38.1,31.3,21.9,0002.9,0042.34,0020.92,0018.47
2022-09-08 17:30:00,,0824.8,5.00,0.00,29.5,27.9,00.0,38.1,31.4,22.4,0003.2,0043.27,0020.98,0018.49
2022-09-08 17:31:00,,0824.9,5.01,0.00,29.5,28.1,00.0,38.2,31.4,22.5,0003.3,0043.44,0021.03,0018.54
2022-09-08 17:32:00,,0824.9,5.01,0.00,29.6,28.3,00.0,38.2,31.5,22.6,0003.2,0042.62,0021.07,0018.58
2022-09-08 17:33:00,,0824.8,4.99,0.00,29.6,27.5,00.0,38.2,31.4,21.9,0002.9,0042.85,0021.15,0018.59
2022-09-08 17:34:00,,0824.8,5.00,0.00,29.5,26.6,00.0,38.2,31.3,21.4,0003.0,0043.09,0021.19,0018.61
2022-09-08 17:35:00,,0824.9,5.00,0.00,29.5,26.7,00.0,38.1,31.3,21.4,0003.5,0043.31,0021.23,0018.65
2022-09-08 17:36:00,,0824.9,5.00,0.00,29.5,26.9,00.0,38.1,31.2,21.5,0003.4,0043.20,0021.35,0018.67
2022-09-08 17:37:00,,0824.9,5.00,0.00,29.4,27.2,00.0,38.1,31.2,21.9,0003.7,0044.17,0021.41,0018.68
2022-09-08 17:38:00,,0824.9,5.01,0.00,29.4,27.6,00.0,38.1,31.2,22.5,0003.7,0045.23,0021.47,0018.70
2022-09-08 17:39:00,,0824.9,5.00,0.00,29.5,27.8,00.0,38.1,31.3,22.9,0003.6,0045.13,0021.44,0018.70
2022-09-08 17:40:00,,0824.9,5.01,0.00,29.5,28.1,00.0,38.1,31.4,24.5,0003.5,0045.79,0021.41,0018.73
2022-09-08 17:41:00,,0824.9,4.98,0.00,29.5,28.3,00.0,38.2,31.5,24.4,0003.5,0044.87,0021.30,0018.76
2022-09-08 17:42:00,,0824.9,5.00,0.00,29.6,28.2,00.0,38.2,31.5,24.0,0003.1,0045.07,0021.25,0018.75
2022-09-08 17:43:00,,0824.9,4.99,0.00,29.6,27.1,00.0,38.2,31.4,23.9,0003.3,0045.83,0021.21,0018.76
2022-09-08 17:44:00,,0824.9,5.01,0.00,29.5,26.6,00.0,38.2,31.3,23.9,0003.3,0045.04,0021.09,0018.77
2022-09-08 17:45:00,,0824.8,4.99,0.00,29.5,26.8,00.0,38.1,31.3,24.1,0003.4,0045.58,0021.10,0018.80
2022-09-08 17:46:00,,0824.8,5.00,0.00,29.5,27.1,00.0,38.1,31.2,24.2,0003.1,0046.45,0021.09,0018.80
2022-09-08 17:47:00,,0824.8,5.00,0.00,29.4,27.4,00.0,38.1,31.3,24.0,0003.1,0046.32,0021.06,0018.83
2022-09-08 17:48:00,,0824.7,5.00,0.00,29.5,27.7,00.0,38.1,31.3,23.9,0003.0,0045.97,0021.08,0018.86
2022-09-08 17:49:00,,0824.7,5.01,0.00,29.5,28.0,00.0,38.1,31.4,23.7,0002.7,0044.93,0021.05,0018.87
2022-09-08 17:50:00,,0824.6,5.01,0.00,29.5,28.2,00.0,38.2,31.4,23.3,0002.5,0044.01,0021.04,0018.89
2022-09-08 17:51:00,,0824.7,4.99,0.00,29.6,28.4,00.0,38.2,31.5,23.2,0002.6,0044.71,0021.11,0018.91
2022-09-08 17:52:00,,0824.6,5.00,0.00,29.6,27.7,00.0,38.2,31.5,23.0,0002.4,0045.37,0021.22,0018.96
2022-09-08 17:53:00,,0824.7,5.00,0.00,29.6,26.6,00.0,38.2,31.3,23.1,0002.7,0045.71,0021.35,0019.01
2022-09-08 17:54:00,,0824.5,5.00,0.00,29.5,26.5,00.0,38.1,31.3,23.1,0002.9,0046.02,0021.47,0019.05
2022-09-08 17:55:00,,0824.6,5.00,0.00,29.5,26.8,00.0,38.1,31.2,23.3,0003.3,0046.50,0021.62,0019.07
2022-09-08 17:56:00,,0824.5,5.01,0.00,29.4,27.1,00.0,38.1,31.1,22.8,0003.5,0045.97,0021.67,0019.06
2022-09-08 17:57:00,,0824.4,4.99,0.00,29.4,27.4,00.0,38.1,31.2,22.6,0003.2,0047.13,0021.81,0019.05
2022-09-08 17:58:00,,0824.4,5.00,0.00,29.4,27.7,00.0,38.1,31.3,22.3,0002.7,0048.97,0021.91,0019.03
2022-09-08 17:59:00,,0824.4,5.00,0.00,29.5,28.0,00.0,38.1,31.4,22.2,0002.6,0050.14,0021.99,0018.99
